Regional Weather Roundup
Issued by NWS

Home | Current Version | Previous Version | Text Only | Print | Product List | Glossary On
Versions: 1 2 3 4 5 6 7 8 9 10 11 12 13 14 15 16 17 18 19 20 21 22 23 24 25 26 27 28 29 30 31 32 33 34 35 36 37 38 39 40 41 42 43 44 45 46 47 48 49 50
000
ASUS43 KMPX 042210
RWRMN
WEATHER ROUNDUP FOR MINNESOTA
NATIONAL WEATHER SERVICE TWIN CITIES/CHANHASSEN MN
500 PM CDT WED MAY 04 2016


NOTE: "FAIR" INDICATES FEW OR NO CLOUDS BELOW 12,000 FEET WITH NO
SIGNIFICANT WEATHER AND/OR OBSTRUCTIONS TO VISIBILITY. N/A MEANS
CURRENT SKY AND/OR WEATHER CONDITIONS ARE NOT AVAILABLE.

MNZ060>063-068>070-042300-
   Twin Cities Metro

CITY           SKY/WX    TMP DP  RH WIND       PRES   REMARKS
TWIN CITIES    SUNNY     66  27  23 NW14      29.94S
ST PAUL        SUNNY     65  30  27 NW10      29.94S
CRYSTAL        SUNNY     67  23  19 NW15G22   29.94R
BLAINE         SUNNY     66  27  22 N10       29.94S
EDEN PRAIRIE   SUNNY     67  23  19 N10G23    29.93S
SOUTH ST PAUL  SUNNY     65  27  23 N9        29.93S
LAKE ELMO      FAIR      64  27  24 N12G24    29.94R
$$
MNZ001>005-007-008-013>017-022>024-027-028-042300-
   Northwest Minnesota

CITY           SKY/WX    TMP DP  RH WIND       PRES   REMARKS
BEMIDJI        SUNNY     63  22  21 N8        29.99S
HALLOCK        SUNNY     70  23  17 W6        29.97F
ROSEAU         SUNNY     66  19  16 CALM      29.98F
WARROAD        SUNNY     55  32  41 E7        30.00F
THIEF RVR FALL SUNNY     66  28  24 W8        30.00S
CROOKSTON      SUNNY     68  28  22 N7        29.99F
FOSSTON        SUNNY     68  21  17 NW6       30.00S
DETROIT LAKES  SUNNY     64  27  24 N7G16     30.00F
MOORHEAD       SUNNY     70  27  19 N9        30.00S
PARK RAPIDS    SUNNY     66  24  20 N8        29.97F
MAHNOMEN       FAIR      67  25  20 N7        29.99S
$$
MNZ006-009>011-018-025>026-042300-
   North Central Minnesota

CITY           SKY/WX    TMP DP  RH WIND       PRES   REMARKS
BAUDETTE       SUNNY     61  15  16 NW10      30.00F
FLAG ISLAND    SUNNY     50  37  62 S9        29.98F
INTL FALLS     SUNNY     60  19  20 VRB5      29.98F
WASKISH        SUNNY     63  18  17 N8        29.99S
BIG FORK       SUNNY     64  16  15 NW6       29.97F
LONGVILLE      SUNNY     63  25  23 W9G21     29.98S
GRAND RAPIDS   SUNNY     63  19  19 N13G18    29.98S
CRANE LAKE     SUNNY     57  16  19 NW7G17    29.99S
ORR            SUNNY     61   9  12 NW7       29.95S
COOK           SUNNY     61  18  18 N9        29.97S
WALKER         FAIR      62  24  23 N8        29.98F
$$
MNZ012-019>021-037-042300-
   Northeast Minnesota

CITY           SKY/WX    TMP DP  RH WIND       PRES   REMARKS
DULUTH         SUNNY     56  29  35 SE12      29.95R
ELY            SUNNY     57  18  21 NE7       29.96S
HIBBING        SUNNY     61  17  18 N12       29.95S
EVELETH        SUNNY     59  12  15 N10G17    29.97S
DULUTH HARBOR  SUNNY     46  36  66 N10       29.98R
TWO HARBORS    SUNNY     55  34  44 SE6       29.96R
SILVER BAY     SUNNY     52  27  37 SE6       29.96R
GRAND MARAIS     N/A     44  36  73 W9        29.99S
G MARAIS ARPRT SUNNY     46  28  49 SE8       29.96S
$$
MNZ029>031-032-039>041-046>048-054>057-064-042300-
   West Central Minnesota

CITY           SKY/WX    TMP DP  RH WIND       PRES   REMARKS
FERGUS FALLS   SUNNY     66  32  28 N10G16    29.97S
WHEATON        SUNNY     72  34  25 NW13G18   30.01F
MORRIS         SUNNY     70  32  24 NW14G23   29.98S
ALEXANDRIA     SUNNY     66  27  23 N13       29.99F
ELBOW LAKE     FAIR      65  33  29 N14       29.99F
WADENA         SUNNY     66  28  24 NW9G17    29.97F
GLENWOOD       SUNNY     66  28  24 NW13G23   29.99S
APPLETON       SUNNY     70  23  17 N16G22    29.98F
BENSON         SUNNY     70  19  14 NE13G20   29.98S
ORTONVILLE     SUNNY     70  27  19 N15G24    30.00F
MADISON        SUNNY     68  28  22 NW13      29.99F
WILLMAR        FAIR      70  34  26 N12G20    29.98S
$$
MNZ033>034-036-042>043-049>051-058-059-042300-
   Central Minnesota

CITY           SKY/WX    TMP DP  RH WIND       PRES   REMARKS
ST CLOUD       SUNNY     66  21  18 N14G21    29.95F
SAUK CENTRE    FAIR      65  25  22 N9G18     29.97S
PAYNESVILLE    SUNNY     67  23  18 N10G20    29.97S
AITKIN         SUNNY     66  -2   6 N12G20    29.95R
PINE RIVER     SUNNY     63  32  31 N10G20    30.01S
BRAINERD       SUNNY     63  20  19 N14       29.97F
STAPLES        SUNNY     64  18  16 NW12      29.97S
LONG PRAIRIE   FAIR      64  23  20 NW9G17    29.97F
LITTLE FALLS   SUNNY     64  19  17 N7        29.96F
LITCHFIELD     SUNNY     66  28  24 N10       29.96S
BUFFALO        SUNNY     65  22  19 NW12      29.96S
MAPLE LAKE     SUNNY     67  27  22 NW15G23   29.97S
HUTCHINSON     SUNNY     67  32  26 N8G24     29.97S
$$
MNZ037-044-045-052-053-042300-
   East Central Minnesota

CITY           SKY/WX    TMP DP  RH WIND       PRES   REMARKS
PRINCETON      SUNNY     66  21  18 N13       29.96S
MORA           SUNNY     63  23  22 N5G21     29.96S
CAMBRIDGE      SUNNY     66  39  37 N9G17     29.93R
RUSH CITY      SUNNY     64  23  20 N8G16     29.94S
MOOSE LAKE     SUNNY     63  25  23 NW6G20    29.93R
HINCKLEY       CLOUDY    64  25  22 N9G20     29.94S
CLOQUET        SUNNY     63   9  12 N10G24    29.95R
MCGREGOR       SUNNY     63  21  20 N10       29.96R
$$
MNZ071>073-080-081-089-090-097-098-042300-
   Southwest Minnesota

CITY           SKY/WX    TMP DP  RH WIND       PRES   REMARKS
MONTEVIDEO     SUNNY     72  30  21 N15       29.99F
GRANITE FALLS  SUNNY     70  33  25 NW16G22   29.99F
CANBY          SUNNY     70  34  26 W13G20    30.01F
MARSHALL       SUNNY     69  30  23 N16G24    29.98F
REDWOOD FALLS  SUNNY     70  27  20 N10G21    29.96F
OLIVIA         SUNNY     70  32  24 N16G26    29.96S
PIPESTONE      SUNNY     70  19  14 N10G17    30.00F
WINDOM         SUNNY     66  30  26 NW9G25    29.97F
WORTHINGTON    SUNNY     66  35  31 NW16G22   30.00F
JACKSON        SUNNY     66  30  26 N13G24    29.98F
TRACY          SUNNY     69  32  25 N17G23    29.99S
SLAYTON        SUNNY     65  30  26 N14       30.00F
$$
MNZ065>067-074>077-082>085-091>093-042300-
   South Central Minnesota

CITY           SKY/WX    TMP DP  RH WIND       PRES   REMARKS
MANKATO        SUNNY     66  27  22 N20G26    29.94S
NEW ULM        SUNNY     68  28  22 NW12G17   29.95R
ST JAMES       SUNNY     64  25  22 NW18      29.96S
FAIRMONT       SUNNY     66  32  28 N20       29.95S
GLENCOE        SUNNY     68  32  26 NW12G18   29.94S
FARIBAULT      SUNNY     64  32  29 NW16G23   29.93S
OWATONNA       SUNNY     64  27  24 N18       29.93S
WASECA         SUNNY     64  30  27 N20G26    29.94S
ALBERT LEA     SUNNY     66  25  20 N20G25    29.92F
$$
MNZ078>079-086>088-094>096-042300-
   Southeast Minnesota

CITY           SKY/WX    TMP DP  RH WIND       PRES   REMARKS
ROCHESTER      SUNNY     63  31  30 N26       29.92R
RED WING       SUNNY     66  23  19 N9G20     29.91R
STANTON        SUNNY     66  27  23 NW20      29.92R
DODGE CENTER   SUNNY     64  23  20 N18G25    29.92S
WINONA         SUNNY     63  30  29 N12G18    29.89S
AUSTIN         SUNNY     63  30  29 N14G28    29.91F
PRESTON        SUNNY     60  31  32 N17G24    29.90R
$$
ABBREVIATIONS USED IN REMARKS
   TC - TEMPERATURES IN CELSIUS
  WCI - WIND CHILL INDEX
   HX - HEAT INDEX
  VSB - VISIBILITY
$$



USA.gov is the U.S. government's official web portal to all federal, state and local government web resources and services.